Weather History for KCBF - December, 2012

Change the Weather History Date:

Saturday, December 15, 2012

  Actual Average Record
Temperature  
Mean Temperature 40 °F -  
Max Temperature 46 °F 35 °F 64 °F (2002)
Min Temperature 33 °F 20 °F -4 °F (2008)
Degree Days  
Heating Degree Days 26    
Moisture  
Dew Point 40 °F    
Average Humidity 93    
Maximum Humidity 100    
Minimum Humidity 87    
Precipitation  
Precipitation 0.61 in - - ()
Sea Level Pressure  
Sea Level Pressure 29.55 in    
Wind  
Wind Speed 14 mph (WSW)    
Max Wind Speed 22 mph    
Max Gust Speed 25 mph    
Visibility 6 miles    
Events Rain    
Averages and records for this station are not official NWS values.
T = Trace of Precipitation, MM = Missing Value Source: NWS Daily Summary

Daily Weather History Graph

Daily Weather History Graph

Search for Another Location

Airport or City:

Trip Planner

Search our weather history database for the weather conditions in past years. The results will help you decide how hot, cold, wet, or windy it might be!

Date:

Astronomy

Dec. 15, 2012 Rise Set
Actual Time 7:42 AM CST 4:54 PM CST
Civil Twilight 7:10 AM CST 5:26 PM CST
Nautical Twilight 6:35 AM CST 6:00 PM CST
Astronomical Twilight 6:02 AM CST 6:34 PM CST
Moon 9:34 AM CST (12/15) 8:01 PM CST (12/15)
Length of Visible Light 10h 15m
Length of Day
9h 12m
Waxing Crescent, 8% of the Moon is Illuminated
Dec 15
Waxing Crescent
Dec 19
First Quarter
Dec 28
Full
Jan 4
Last Quarter
Jan 11
New

Hourly Weather History & Observations

Time (CST) Temp. Windchill Dew Point Humidity Pressure Visibility Wind Dir Wind Speed Gust Speed Precip Events Conditions
12:15 AM 42.8 °F 34.5 °F 41.0 °F 93% 29.60 in 2.5 mi SE 18.4 mph 25.3 mph N/A   Mist
12:35 AM 42.8 °F 35.4 °F 41.0 °F 93% 29.59 in 3.0 mi SSE 15.0 mph 21.9 mph N/A   Mist
12:55 AM 42.8 °F 34.5 °F 41.0 °F 93% 29.57 in 5.0 mi SSE 18.4 mph 25.3 mph 0.30 in   Mist
1:15 AM 42.8 °F 34.8 °F 41.0 °F 93% 29.55 in 5.0 mi SE 17.3 mph 25.3 mph N/A   Overcast
1:35 AM 41.0 °F 33.1 °F 41.0 °F 100% 29.53 in 4.0 mi SE 15.0 mph 20.7 mph N/A   Unknown
1:55 AM 41.0 °F 32.5 °F 41.0 °F 100% 29.52 in 5.0 mi SE 17.3 mph - 0.10 in   Overcast
2:15 AM 42.8 °F 34.8 °F 41.0 °F 93% 29.52 in 5.0 mi SE 17.3 mph 24.2 mph N/A   Overcast
2:35 AM 42.8 °F 35.4 °F 41.0 °F 93% 29.51 in 4.0 mi SE 15.0 mph - N/A   Overcast
2:55 AM 42.8 °F 35.1 °F 42.8 °F 100% 29.50 in 5.0 mi SE 16.1 mph - 0.12 in   Unknown
3:15 AM 42.8 °F 34.5 °F 42.8 °F 100% 29.48 in 10.0 mi SE 18.4 mph - N/A   Unknown
3:35 AM 42.8 °F 34.8 °F 42.8 °F 100% 29.47 in 6.0 mi SE 17.3 mph - N/A   Overcast
3:55 AM 42.8 °F 33.8 °F 42.8 °F 100% 29.45 in 3.0 mi SSE 21.9 mph - 0.01 in   Overcast
4:15 AM 44.6 °F 37.4 °F 42.8 °F 93% 29.44 in 2.5 mi SSE 16.1 mph 24.2 mph N/A   Mist
4:35 AM 44.6 °F 37.4 °F 42.8 °F 93% 29.44 in 2.5 mi SSE 16.1 mph - N/A   Mist
4:55 AM 44.6 °F 38.1 °F 42.8 °F 93% 29.44 in 2.5 mi SSE 13.8 mph - N/A Rain Light Rain
5:15 AM 44.6 °F 38.1 °F 42.8 °F 93% 29.43 in 3.0 mi SSE 13.8 mph 21.9 mph N/A   Overcast
5:35 AM 44.6 °F 37.8 °F 42.8 °F 93% 29.43 in 2.0 mi SSE 15.0 mph - N/A   Unknown
5:55 AM 44.6 °F 38.1 °F 42.8 °F 93% 29.43 in 2.0 mi SSE 13.8 mph - 0.06 in   Unknown
6:15 AM 44.6 °F 39.7 °F 42.8 °F 93% 29.44 in 3.0 mi South 9.2 mph - N/A Rain Light Rain
6:35 AM 44.6 °F 40.7 °F 42.8 °F 93% 29.44 in 4.0 mi SW 6.9 mph - N/A   Mist
6:55 AM 44.6 °F 40.2 °F 44.6 °F 100% 29.44 in 5.0 mi South 8.1 mph - 0.02 in   Overcast
7:15 AM 44.6 °F 41.4 °F 42.8 °F 93% 29.44 in 7.0 mi SSW 5.8 mph - N/A   Overcast
7:35 AM 44.6 °F 41.4 °F 42.8 °F 93% 29.44 in 5.0 mi South 5.8 mph - N/A   Overcast
8:15 AM 44.6 °F 40.7 °F 44.6 °F 100% 29.45 in 5.0 mi SSE 6.9 mph - N/A   Overcast
8:35 AM 44.6 °F 41.4 °F 44.6 °F 100% 29.44 in 5.0 mi SSE 5.8 mph - N/A   Overcast
8:55 AM 44.6 °F 42.2 °F 44.6 °F 100% 29.45 in 2.0 mi South 4.6 mph - N/A   Overcast
9:15 AM 44.6 °F 39.7 °F 44.6 °F 100% 29.46 in 1.5 mi SSW 9.2 mph - N/A   Overcast
9:35 AM 44.6 °F 40.2 °F 44.6 °F 100% 29.46 in 2.0 mi SW 8.1 mph - N/A   Overcast
9:55 AM 44.6 °F 40.2 °F 44.6 °F 100% 29.48 in 2.0 mi SW 8.1 mph - N/A   Overcast
10:15 AM 44.6 °F 40.2 °F 44.6 °F 100% 29.48 in 2.0 mi WSW 8.1 mph - N/A   Overcast
10:35 AM 46.4 °F 42.9 °F 46.4 °F 100% 29.49 in 3.0 mi West 6.9 mph - N/A   Overcast
10:55 AM 46.4 °F 41.1 °F 46.4 °F 100% 29.49 in 8.0 mi WNW 11.5 mph - N/A   Overcast
11:15 AM 46.4 °F 41.1 °F 44.6 °F 93% 29.50 in 10.0 mi WNW 11.5 mph - N/A   Overcast
11:35 AM 46.4 °F 41.1 °F 44.6 °F 93% 29.50 in 10.0 mi WNW 11.5 mph 17.3 mph N/A   Overcast
11:55 AM 46.4 °F 39.8 °F 44.6 °F 93% 29.49 in 10.0 mi WNW 16.1 mph 21.9 mph N/A   Overcast
12:15 PM 46.4 °F 41.5 °F 42.8 °F 87% 29.50 in 9.0 mi WNW 10.4 mph 19.6 mph N/A   Overcast
12:35 PM 46.4 °F 40.7 °F 42.8 °F 87% 29.50 in 10.0 mi WNW 12.7 mph - N/A   Overcast
12:55 PM 46.4 °F 41.1 °F 42.8 °F 87% 29.51 in 10.0 mi WNW 11.5 mph 18.4 mph N/A   Overcast
1:15 PM 46.4 °F 41.5 °F 42.8 °F 87% 29.50 in 10.0 mi WNW 10.4 mph - N/A   Overcast
1:35 PM 46.4 °F 41.9 °F 42.8 °F 87% 29.51 in 10.0 mi WNW 9.2 mph 16.1 mph N/A   Overcast
1:55 PM 44.6 °F 38.8 °F 42.8 °F 93% 29.51 in 9.0 mi WNW 11.5 mph 19.6 mph N/A   Overcast
2:15 PM 42.8 °F 36.2 °F 41.0 °F 93% 29.51 in 10.0 mi WNW 12.7 mph 19.6 mph N/A   Overcast
2:35 PM 42.8 °F 36.6 °F 41.0 °F 93% 29.52 in 10.0 mi NW 11.5 mph - N/A   Overcast
2:55 PM 42.8 °F 36.2 °F 41.0 °F 93% 29.54 in 10.0 mi West 12.7 mph - N/A   Overcast
3:15 PM 42.8 °F 35.4 °F 39.2 °F 87% 29.56 in 10.0 mi WNW 15.0 mph - N/A   Overcast
3:35 PM 41.0 °F 33.5 °F 39.2 °F 93% 29.57 in 8.0 mi West 13.8 mph - N/A   Overcast
3:55 PM 41.0 °F 33.5 °F 37.4 °F 87% 29.59 in 10.0 mi West 13.8 mph - N/A   Overcast
4:15 PM 39.2 °F 32.0 °F 37.4 °F 93% 29.60 in 9.0 mi WNW 11.5 mph - N/A   Overcast
4:35 PM 39.2 °F 31.6 °F 37.4 °F 93% 29.62 in 9.0 mi WNW 12.7 mph 20.7 mph N/A   Overcast
4:55 PM 39.2 °F 31.6 °F 37.4 °F 93% 29.63 in 10.0 mi West 12.7 mph - N/A   Overcast
5:15 PM 39.2 °F 31.2 °F 37.4 °F 93% 29.64 in 10.0 mi WNW 13.8 mph - N/A   Overcast
5:35 PM 39.2 °F 30.8 °F 35.6 °F 87% 29.64 in 8.0 mi WNW 15.0 mph - N/A   Overcast
5:55 PM 39.2 °F 30.5 °F 35.6 °F 87% 29.65 in 7.0 mi WNW 16.1 mph - N/A   Overcast
6:15 PM 39.2 °F 29.6 °F 35.6 °F 87% 29.65 in 10.0 mi WNW 19.6 mph - N/A   Overcast
6:35 PM 39.2 °F 32.0 °F 35.6 °F 87% 29.65 in 9.0 mi NW 11.5 mph 19.6 mph N/A   Overcast
6:55 PM 37.4 °F 30.8 °F 35.6 °F 93% 29.65 in 8.0 mi NW 9.2 mph 17.3 mph N/A   Overcast
7:15 PM 37.4 °F 28.5 °F 35.6 °F 93% 29.65 in 8.0 mi NW 15.0 mph - N/A   Overcast
7:35 PM 37.4 °F 29.3 °F 33.8 °F 87% 29.65 in 7.0 mi WNW 12.7 mph 19.6 mph N/A   Overcast
7:55 PM 37.4 °F 29.8 °F 33.8 °F 87% 29.67 in 7.0 mi WNW 11.5 mph - N/A   Overcast
8:15 PM 37.4 °F 29.8 °F 33.8 °F 87% 29.67 in 7.0 mi West 11.5 mph - N/A   Overcast
8:35 PM 35.6 °F 27.5 °F 32.0 °F 87% 29.67 in 7.0 mi NW 11.5 mph 20.7 mph N/A   Overcast
8:55 PM 35.6 °F 26.2 °F 32.0 °F 87% 29.68 in 7.0 mi NW 15.0 mph - N/A   Overcast
9:15 PM 35.6 °F 28.6 °F 32.0 °F 87% 29.68 in 7.0 mi WNW 9.2 mph 15.0 mph N/A   Overcast
9:35 PM 35.6 °F 28.6 °F 32.0 °F 87% 29.68 in 7.0 mi WNW 9.2 mph - N/A   Overcast
9:55 PM 35.6 °F 28.0 °F 32.0 °F 87% 29.68 in 7.0 mi NW 10.4 mph - N/A   Overcast
10:15 PM 35.6 °F 28.0 °F 32.0 °F 87% 29.69 in 7.0 mi NW 10.4 mph - N/A   Overcast
10:35 PM 33.8 °F 25.3 °F 32.0 °F 93% 29.69 in 7.0 mi NW 11.5 mph - N/A   Overcast
10:55 PM 33.8 °F 26.4 °F 32.0 °F 93% 29.70 in 6.0 mi NW 9.2 mph - N/A   Overcast
11:15 PM 33.8 °F 24.8 °F 32.0 °F 93% 29.69 in 6.0 mi NW 12.7 mph - N/A   Overcast
11:35 PM 33.8 °F 25.3 °F 32.0 °F 93% 29.70 in 5.0 mi NW 11.5 mph - N/A   Overcast
11:55 PM 33.8 °F 26.4 °F 32.0 °F 93% 29.70 in 5.0 mi NW 9.2 mph - N/A   Overcast